Theta_e
318 319 319 320 320 321 322 322 322 323 324 325 326 326 329 330 331 331 331 332 332 332 332 333 333 333 333 334 334 333 329 324 321 320 318 326 330 336 334 335 333 335 333 317 313 309 306 307 307 309 309 312 310 311 314 312 310 309 303 295 294 298 298 301 301 298 300 296 296 299 299 299 298 301 304 306 305 303 306 309 310 319 319 319 320 323 325 325
318 318 319 319 320 321 321 321 322 322 324 324 325 326 328 330 330 331 331 331 331 330 332 332 333 333 333 333 333 330 327 324 321 320 321 332 334 334 333 332 334 334 325 314 307 306 306 305 306 309 309 308 314 310 313 310 310 304 298 299 301 299 303 306 304 300 298 298 296 297 297 299 299 301 303 303 301 304 305 306 311 314 317 320 322 323 324 324
317 318 318 319 319 320 321 321 321 323 324 324 325 326 327 329 329 330 331 331 331 330 331 332 332 331 332 333 331 329 324 319 318 317 324 334 335 333 333 334 334 334 316 313 312 307 307 307 308 309 310 307 311 308 311 308 308 302 302 297 301 304 304 308 304 304 298 298 297 297 298 299 302 301 303 301 299 301 303 304 306 311 313 315 318 321 322 323
317 317 318 318 319 319 320 322 322 322 323 324 324 325 326 328 329 330 330 330 330 330 331 331 331 331 331 331 330 325 322 316 311 320 328 336 336 334 333 334 334 332 317 316 316 312 309 310 309 309 308 306 308 309 306 309 306 304 304 302 304 306 306 309 305 299 300 298 297 297 298 300 301 301 301 298 301 299 301 305 309 309 315 317 319 320 321 321
317 317 317 318 318 319 320 321 322 322 323 323 324 325 326 327 328 329 330 330 330 330 330 331 331 331 330 330 327 323 319 309 311 323 328 336 336 335 333 335 333 321 318 317 315 315 312 309 309 309 307 302 306 306 305 308 308 304 305 306 305 306 306 311 310 306 299 299 297 296 298 299 302 302 299 301 298 297 302 304 308 312 319 318 318 319 320 320
317 317 317 318 318 318 320 320 321 321 323 323 323 324 325 327 328 328 329 330 330 330 330 331 331 329 329 328 322 320 315 293 314 316 333 335 336 336 334 333 332 321 318 315 313 313 310 310 308 304 304 303 303 304 303 307 309 303 303 303 304 305 306 307 304 302 299 299 297 296 298 300 301 300 298 300 299 299 300 304 308 311 321 321 322 321 319 319
316 316 317 317 318 318 319 320 320 322 322 323 322 323 325 326 327 328 328 329 330 330 329 329 330 329 327 326 319 317 312 310 313 316 331 335 336 335 335 333 328 322 316 311 312 310 308 307 307 303 303 303 302 305 306 307 308 306 303 303 306 306 307 307 304 300 298 299 297 298 299 300 298 298 299 298 300 300 301 301 304 313 322 322 320 320 320 320
316 316 317 317 318 318 318 319 319 321 322 323 323 323 324 326 326 327 328 328 329 329 329 329 329 329 326 318 313 308 310 311 318 320 331 334 333 333 333 324 322 319 317 309 309 309 308 305 304 306 302 302 301 306 306 306 306 304 303 304 305 306 307 308 308 299 297 298 298 299 298 298 297 297 298 298 301 300 301 306 309 314 321 321 320 320 320 320
316 316 317 317 318 318 319 319 319 320 321 322 322 322 324 324 326 326 327 327 328 328 329 328 328 327 325 317 312 307 306 319 322 323 327 329 327 327 324 317 320 316 314 315 315 315 310 304 305 307 301 303 305 305 306 306 301 305 305 304 307 307 306 307 304 297 296 298 297 298 296 296 295 298 297 299 299 300 300 309 311 317 319 319 320 320 320 320
316 316 316 317 317 318 318 319 319 320 321 321 322 322 323 324 325 326 326 326 327 328 329 328 327 326 319 314 311 304 314 323 324 326 326 325 323 320 319 316 317 314 312 313 316 315 311 308 308 310 308 306 307 304 305 306 302 306 305 305 306 308 308 302 301 296 296 298 296 298 297 297 298 298 298 299 301 299 300 308 311 316 317 318 319 320 320 320
316 316 316 317 317 318 318 318 319 320 321 321 322 322 323 324 324 325 326 326 327 327 328 328 326 323 314 315 307 303 319 322 320 324 323 323 321 318 317 313 314 313 314 314 312 316 319 318 317 314 311 304 307 304 305 305 308 305 307 304 305 306 306 301 297 296 297 298 296 298 297 297 297 298 302 301 299 300 300 305 312 314 316 317 318 319 320 320
316 316 316 316 317 317 318 318 319 320 320 321 322 321 323 324 324 325 324 325 326 327 327 326 326 321 316 310 309 310 319 320 321 323 323 321 319 319 317 314 312 313 313 310 313 317 319 318 318 312 304 311 301 306 306 308 308 305 304 302 303 303 305 303 298 296 297 299 296 298 299 296 296 298 306 302 300 298 299 299 308 312 314 316 317 318 319 319
315 315 315 316 316 317 317 318 319 320 320 321 322 322 322 323 324 325 324 324 325 326 326 327 325 320 312 303 310 320 319 318 321 321 321 321 317 315 315 313 312 310 312 312 313 314 316 318 319 313 311 311 306 303 305 309 306 306 305 301 301 301 300 304 300 298 297 300 297 303 295 297 299 301 306 301 301 299 298 298 299 306 310 314 316 317 318 319
315 315 315 316 316 317 318 318 319 319 320 320 321 322 322 323 324 324 324 322 324 325 326 326 324 318 311 307 317 320 320 319 321 319 318 316 315 313 315 316 318 318 319 316 314 314 314 318 318 314 314 309 307 310 306 304 306 302 302 302 297 295 295 302 305 299 297 299 300 304 296 299 303 304 305 301 299 299 299 300 299 299 302 307 313 316 317 318
315 315 315 316 316 317 317 318 318 320 320 320 321 322 322 322 323 323 324 323 324 325 326 325 321 313 305 308 319 322 325 321 316 316 317 314 312 311 313 316 317 318 318 318 316 317 318 318 316 312 308 311 308 306 301 301 299 300 299 295 295 297 295 302 303 299 301 303 300 302 295 299 304 307 306 304 302 300 300 302 301 300 299 300 305 312 316 317
315 315 315 316 316 317 317 317 318 319 320 320 321 321 321 322 322 322 323 321 323 325 323 317 316 314 307 303 314 325 320 313 313 317 317 316 313 311 314 315 316 317 318 316 319 318 318 318 311 310 308 311 309 304 300 298 298 299 301 292 295 294 296 299 303 300 305 303 300 302 295 295 300 303 305 306 303 301 301 302 303 302 301 300 300 304 309 313
315 315 315 316 316 316 317 317 318 319 319 320 320 321 321 321 321 321 321 321 320 321 319 310 316 315 299 313 318 313 311 315 319 316 315 315 314 314 314 313 311 312 315 315 317 316 314 312 311 309 310 306 305 304 298 296 296 297 299 297 296 296 295 297 301 303 302 304 299 300 299 302 304 300 301 303 303 300 301 302 303 303 303 304 302 301 302 305
315 315 315 315 316 316 316 318 319 319 319 319 318 318 316 318 320 319 316 315 314 313 313 311 312 309 304 311 305 309 316 315 315 315 315 314 315 315 313 310 310 311 311 309 311 309 310 306 308 302 303 303 302 301 297 292 296 296 296 297 297 298 300 299 299 301 303 302 302 300 297 299 303 305 306 307 303 303 302 303 304 303 304 304 304 303 302 303
315 315 315 315 315 316 316 316 317 317 318 318 318 319 319 318 316 312 309 309 307 302 298 300 302 295 292 304 307 306 316 319 318 315 311 312 313 314 312 314 311 307 303 303 302 306 307 304 304 301 298 299 300 301 300 300 302 300 299 299 299 297 297 298 302 302 305 302 300 301 300 300 301 302 305 306 306 303 305 305 304 305 305 305 304 304 303 303
314 315 315 315 315 316 317 317 317 317 318 314 313 312 308 301 301 299 306 307 303 302 304 305 306 302 300 300 301 308 312 310 312 312 313 314 311 309 310 310 306 306 302 298 300 303 306 299 295 295 298 301 303 303 304 304 304 303 301 300 299 299 299 301 302 303 304 302 301 302 302 302 304 305 305 306 306 304 304 303 303 303 304 304 304 304 304 304
314 315 315 315 315 316 316 317 317 317 318 314 311 304 295 296 293 290 298 302 302 300 299 300 304 301 300 303 306 303 303 311 314 311 312 316 312 308 305 306 301 298 300 301 299 304 304 297 297 300 302 303 304 304 304 304 303 302 300 298 298 298 297 301 302 302 303 302 298 301 301 302 303 306 307 307 304 303 305 306 306 306 305 305 304 304 305 306
314 315 315 315 315 316 316 317 317 317 318 313 307 302 304 304 304 307 304 293 299 301 300 300 302 299 305 305 305 308 304 302 309 310 314 314 308 304 303 303 299 295 300 300 300 298 296 294 299 302 304 304 304 304 304 302 301 301 300 299 298 298 299 301 302 302 301 301 299 298 299 302 304 305 307 307 305 305 306 307 307 307 306 305 305 305 305 305
314 314 315 315 315 316 316 316 316 317 312 307 303 304 303 307 305 306 305 300 296 301 299 298 297 298 300 306 306 307 299 295 303 309 310 312 305 306 303 300 298 299 299 300 295 294 291 295 300 304 304 302 302 303 302 301 301 300 299 297 296 299 298 295 301 301 300 300 295 298 299 301 304 305 305 307 306 306 306 306 306 307 306 305 305 305 305 304
314 314 315 315 315 315 316 316 317 312 308 307 305 305 307 307 305 307 303 291 289 295 299 301 301 300 299 299 304 304 297 298 299 306 314 311 303 307 303 302 299 299 296 299 298 296 294 299 303 303 303 301 299 300 300 299 297 300 300 299 298 298 300 300 299 300 300 298 297 294 295 296 298 297 299 301 303 304 306 303 303 304 305 307 306 305 305 306
314 314 314 315 315 315 315 316 308 308 308 307 306 309 308 307 305 305 296 289 289 287 301 299 301 301 302 310 309 300 301 301 301 306 313 311 306 305 302 306 302 297 299 300 299 298 298 301 304 301 301 301 300 298 299 299 296 298 300 300 301 301 300 300 299 298 294 293 294 295 288 292 299 300 300 302 300 299 302 302 302 303 304 304 303 304 305 305
313 314 314 314 315 315 316 305 305 308 304 303 306 309 309 308 305 301 295 282 278 284 296 288 304 297 308 299 303 300 302 294 303 304 304 312 316 307 305 301 304 296 300 299 298 299 299 303 303 299 299 299 299 298 300 301 296 295 297 303 302 302 301 300 297 297 292 291 294 298 292 289 294 297 300 301 301 301 303 301 302 303 304 304 304 305 305 306
314 314 314 314 315 316 304 299 309 307 300 302 309 309 308 308 309 302 292 277 278 288 283 293 298 294 306 301 301 302 289 290 306 305 305 307 307 316 302 300 302 303 304 303 298 294 301 300 300 300 298 297 297 296 300 301 297 294 302 302 302 301 300 300 299 297 294 295 296 295 295 291 292 298 296 297 298 300 301 302 301 302 304 304 305 305 305 306
313 314 314 314 315 312 306 308 306 302 303 307 310 309 309 308 308 303 288 273 273 292 284 292 295 306 302 302 302 297 294 301 295 301 305 308 307 308 305 300 299 299 302 300 288 299 301 297 299 297 297 297 296 299 302 302 298 298 303 304 301 302 302 301 299 295 294 292 291 295 292 287 289 294 300 297 296 295 297 299 301 302 303 304 305 306 306 307
313 313 314 314 314 313 309 307 305 302 306 309 309 309 308 307 304 292 279 273 286 284 299 290 305 300 299 301 297 298 297 299 291 301 306 308 309 307 300 302 302 301 303 301 294 298 299 301 300 300 297 295 299 302 303 302 297 299 303 305 304 303 301 299 294 292 289 289 288 294 293 289 291 292 295 298 299 299 299 299 300 302 303 304 305 306 307 307
313 313 313 314 312 309 304 307 304 307 309 309 308 308 307 303 294 283 276 268 290 276 292 293 296 290 297 291 292 296 293 295 296 300 303 301 305 306 305 312 303 300 298 301 299 297 300 304 305 301 297 299 301 301 303 303 302 301 301 298 296 297 296 289 288 290 288 287 291 296 294 294 288 294 295 294 297 300 300 301 301 300 302 304 305 306 307 308
313 313 313 313 305 305 305 300 304 308 309 308 308 306 301 294 281 277 272 278 288 284 294 292 288 298 290 288 285 292 292 293 294 295 293 299 298 303 304 301 304 299 297 297 296 296 299 300 299 300 304 302 303 299 302 304 302 302 295 292 294 289 288 291 288 288 287 286 293 297 295 295 287 291 296 300 297 301 301 301 303 303 303 303 304 305 307 307
313 313 313 310 308 308 302 300 306 308 308 308 305 299 293 279 283 274 273 296 279 285 286 286 292 291 290 291 289 287 285 289 292 293 288 288 288 291 297 293 296 287 288 290 289 296 294 296 299 301 304 302 299 298 297 301 300 300 296 296 291 285 288 284 287 284 285 286 288 294 295 288 291 297 293 296 297 296 301 304 304 304 305 305 305 306 306 306
313 313 312 310 309 303 305 307 309 308 307 305 299 296 285 278 272 278 279 280 274 289 285 291 289 290 289 289 286 288 292 286 291 291 292 287 287 288 291 291 296 294 286 292 290 291 291 297 298 298 300 302 301 294 292 292 296 297 295 293 288 284 283 282 285 287 288 290 290 290 294 291 295 298 303 300 297 299 300 300 301 302 304 304 304 304 303 303
313 311 308 309 306 305 307 308 308 307 304 302 295 288 283 276 273 287 279 272 278 289 291 288 291 290 289 285 285 288 284 290 290 288 290 285 285 285 288 293 294 292 293 292 288 289 285 285 292 297 292 302 300 298 298 295 296 297 299 296 290 289 285 280 283 281 284 287 287 290 290 285 288 289 291 297 303 302 301 301 302 301 301 301 302 301 300 300
313 309 308 306 305 307 308 308 308 306 303 298 290 284 277 275 280 278 277 276 278 288 287 292 288 287 285 285 288 289 291 285 290 288 285 286 283 285 285 286 292 294 295 289 291 289 288 289 296 302 299 302 298 301 302 297 295 298 299 298 292 288 291 286 285 285 286 285 283 286 288 290 294 294 291 295 294 293 294 297 297 300 301 302 302 303 303 302
309 305 305 301 303 306 308 308 307 306 300 293 285 280 277 280 273 280 279 285 284 285 288 289 288 284 284 283 288 287 292 287 288 288 285 285 287 285 287 288 288 295 292 290 292 287 289 287 297 300 302 300 300 301 300 301 287 294 296 290 293 298 294 284 281 279 283 284 283 288 288 292 297 299 300 298 295 295 295 294 295 298 301 302 303 304 304 304
300 302 298 301 302 307 308 308 306 303 298 291 284 279 283 282 282 283 290 286 286 290 288 281 282 283 282 281 283 285 287 290 287 286 283 286 285 286 286 287 293 294 295 291 286 295 288 288 298 297 295 300 303 303 301 302 299 298 290 294 295 294 292 288 282 280 280 280 282 289 285 287 285 285 293 298 297 298 296 296 296 298 300 301 304 305 306 302
299 298 300 300 303 307 308 307 305 301 295 288 281 284 284 283 286 286 286 287 289 288 286 284 285 288 283 283 282 284 288 285 283 286 283 287 283 291 287 286 292 292 294 298 291 290 294 286 290 297 297 299 302 301 298 301 301 297 294 303 294 286 286 286 284 281 278 279 276 285 287 288 289 289 285 286 294 297 298 297 296 295 296 299 303 305 305 299
298 296 290 299 305 307 307 307 303 297 290 284 282 282 285 285 288 285 287 289 287 289 286 284 281 286 287 284 284 286 288 282 286 283 284 284 283 289 287 291 289 294 295 297 290 290 292 284 288 297 297 298 299 298 288 293 298 296 297 298 299 292 290 288 288 285 287 279 279 280 284 282 291 292 294 290 290 295 297 297 297 297 297 298 301 303 304 304
293 289 287 301 305 306 307 305 298 293 286 281 284 280 286 284 286 288 289 291 285 282 283 283 283 283 285 284 286 283 287 286 286 284 285 287 285 294 288 294 291 293 296 297 291 295 286 291 283 289 296 298 289 294 292 294 290 291 291 293 294 291 289 294 291 289 285 281 282 277 280 283 290 294 293 294 293 293 295 297 298 299 299 299 300 302 302 302
295 289 289 301 304 305 305 299 290 285 284 284 286 284 285 285 288 287 289 289 288 289 284 282 283 283 284 284 284 288 286 286 286 284 284 286 287 284 292 293 294 291 296 294 290 290 285 286 283 288 289 290 292 298 298 297 296 294 293 292 294 291 288 285 283 291 289 284 278 279 279 287 287 292 296 296 296 295 296 297 298 300 301 302 302 301 299 298
290 283 286 300 303 303 296 285 284 286 284 283 283 285 284 292 286 287 287 287 286 284 287 284 284 282 280 283 287 287 285 285 286 285 285 285 289 289 292 297 296 297 293 287 287 292 292 288 285 283 286 290 295 298 300 300 299 298 296 293 297 295 292 288 282 286 288 287 280 282 280 286 288 290 294 296 296 297 297 297 298 299 300 301 301 300 297 296
288 285 295 299 302 299 291 284 286 284 282 284 288 286 287 286 286 287 285 285 284 284 283 282 284 282 284 283 282 284 287 283 286 284 286 287 288 291 293 296 297 296 295 289 293 293 293 285 283 285 287 289 291 294 293 298 298 295 296 296 296 292 293 291 289 290 288 288 287 285 283 287 293 287 292 290 292 295 296 295 296 297 298 300 300 299 296 295
287 286 289 298 301 297 287 279 279 281 283 285 286 286 288 286 286 284 284 285 284 283 282 282 284 285 283 283 284 285 287 282 287 287 285 287 286 294 295 296 297 294 294 291 289 294 286 285 285 282 283 284 286 289 290 290 292 292 293 295 295 296 296 294 293 287 287 288 288 286 281 286 294 290 288 289 288 290 293 293 294 296 296 296 297 297 296 295
287 289 288 291 296 292 282 284 283 282 282 282 283 282 284 284 286 287 286 283 284 282 283 282 283 284 284 284 284 285 286 285 282 289 288 287 288 293 293 296 298 296 296 296 295 298 288 287 285 279 277 276 277 279 281 286 289 291 292 294 295 294 294 291 287 288 285 288 289 286 286 292 292 290 290 290 288 289 291 292 291 294 296 296 295 296 296 292
283 279 285 285 286 287 287 287 285 283 282 282 281 282 284 282 284 285 286 284 284 283 282 284 283 284 282 283 281 280 282 285 281 282 286 284 286 287 292 294 293 293 294 294 293 294 286 286 287 286 284 282 284 284 285 286 286 287 290 293 293 295 295 294 291 288 285 288 287 289 291 291 293 292 290 290 287 291 291 288 291 293 293 293 293 295 294 294
285 280 281 279 285 285 284 285 284 285 281 284 278 282 280 281 282 283 286 283 284 283 282 281 283 282 280 282 280 280 282 282 284 286 285 286 286 288 292 293 294 295 295 294 295 290 285 284 284 285 285 286 286 286 287 287 285 286 286 290 294 293 293 292 289 287 293 289 284 291 292 290 292 295 293 289 290 289 289 289 289 289 292 294 294 292 292 291
278 280 285 289 282 279 280 281 284 283 284 284 280 283 281 281 281 280 283 283 283 282 281 281 282 282 283 283 281 278 279 278 280 281 285 286 287 289 288 291 292 294 294 293 294 290 284 283 284 285 285 286 286 286 287 286 286 287 287 286 287 293 293 290 290 293 293 288 286 292 293 290 293 296 296 293 292 292 293 292 293 294 291 291 291 291 292 292
284 284 285 289 279 282 283 284 284 283 282 283 282 282 280 281 280 281 280 281 280 280 280 277 279 280 280 281 280 278 281 278 277 280 283 285 286 286 284 287 289 291 292 289 291 289 287 283 283 285 284 284 285 286 286 285 285 285 286 287 287 287 288 291 293 294 293 292 293 293 293 292 295 296 297 297 294 292 292 291 289 289 289 289 289 289 290 291
281 282 280 285 284 284 284 284 284 283 280 284 278 279 281 280 280 280 280 280 277 279 281 280 279 279 280 280 280 279 281 282 281 278 283 286 285 285 285 286 285 287 289 287 289 290 288 283 288 285 283 284 285 286 286 285 285 284 286 287 287 287 287 286 287 291 294 293 294 294 292 292 296 298 298 298 296 292 292 292 293 292 289 288 289 291 291 292
285 285 286 283 280 282 284 283 282 281 280 281 279 280 281 281 280 280 280 281 279 279 280 280 279 280 280 280 280 280 281 283 283 284 285 287 284 287 286 284 290 286 285 284 285 285 286 283 284 284 281 280 284 284 285 285 285 284 285 285 286 286 284 286 286 289 288 289 293 292 290 291 297 300 300 294 292 295 296 297 297 295 293 291 292 293 293 293
283 285 287 285 278 284 281 282 281 281 276 281 281 280 281 280 280 282 280 281 280 281 282 281 281 281 279 280 279 281 283 284 285 286 288 289 288 287 287 288 291 287 285 285 286 285 285 283 280 281 279 279 283 285 284 284 283 281 282 285 287 287 289 290 291 292 290 290 287 288 290 297 299 300 298 292 295 296 297 296 295 296 298 298 297 296 296 295
Wind_Speed
15 15 15 16 17 17 17 17 17 17 16 17 16 15 13 11 11 11 12 13 15 13 11 12 12 11 11 10 10 12 14 9 6 8 10 9 7 8 4 6 8 3 3 1 0 3 3 3 3 1 1 1 2 1 1 0 0 1 2 3 3 3 4 4 3 3 1 1 3 1 2 4 2 0 0 2 6 3 2 4 3 4 5 1 2 6 14 14
15 15 15 16 17 18 17 17 17 17 17 17 16 16 14 12 12 12 12 13 13 13 12 10 11 11 11 10 11 12 10 8 11 10 17 6 7 8 9 6 7 3 5 1 5 7 6 3 4 2 3 2 0 2 1 1 1 2 1 3 9 5 2 4 1 1 2 3 2 2 1 4 4 5 1 4 0 1 3 2 3 3 5 6 6 10 15 14
15 15 15 16 17 18 18 17 17 17 18 17 16 16 14 12 12 11 11 12 13 13 13 12 10 9 10 11 13 12 6 2 5 14 14 12 11 12 12 7 2 8 5 3 3 6 8 8 5 3 1 3 1 3 1 2 2 3 5 5 7 4 3 3 2 4 3 4 5 1 0 4 2 3 1 3 4 1 7 5 1 1 1 4 5 8 12 13
15 16 16 16 16 17 18 17 17 17 17 17 16 16 14 12 11 11 11 11 11 12 11 11 10 10 10 12 15 9 3 2 9 3 8 16 15 13 13 7 2 4 4 1 0 2 3 5 5 6 2 3 1 1 4 4 3 2 2 6 4 4 1 4 3 3 1 4 4 3 0 2 1 3 3 4 6 3 5 6 10 11 9 9 9 11 11 12
15 16 16 17 17 16 18 18 17 17 17 18 17 16 14 12 11 11 11 11 11 11 11 10 11 11 12 13 16 10 5 4 6 9 11 19 18 16 14 8 4 3 5 2 0 0 3 7 4 2 2 4 1 1 3 4 2 3 8 2 2 1 4 5 4 5 3 1 5 1 4 4 1 1 2 9 7 7 9 9 9 9 13 13 12 11 10 13
16 16 16 17 17 17 18 19 18 18 17 17 17 15 14 13 11 11 12 12 12 12 12 11 11 13 15 16 12 8 9 12 1 2 14 24 22 19 16 11 7 4 4 2 3 1 5 2 6 3 2 3 5 8 3 5 2 4 4 2 3 3 2 1 1 3 4 2 4 4 3 2 4 1 3 7 7 5 6 6 11 7 14 16 14 13 12 13
16 16 16 17 17 18 18 19 18 17 17 17 18 16 14 13 12 12 12 13 12 12 13 13 12 14 17 17 5 10 15 6 1 5 11 22 25 22 19 13 9 4 4 4 4 3 4 5 6 4 3 4 4 7 4 5 3 6 7 1 6 5 7 4 3 1 2 7 5 4 1 4 3 2 1 4 6 5 3 3 6 10 9 10 12 15 18 17
16 16 16 16 16 17 18 18 19 16 16 17 17 17 15 14 13 13 12 12 12 12 12 14 15 15 17 10 7 7 11 13 2 1 11 18 18 21 19 9 10 4 3 5 5 4 5 7 9 3 5 9 4 10 3 5 4 8 6 3 2 2 5 5 7 4 3 4 2 3 3 4 6 3 1 5 8 5 3 1 2 7 11 11 13 15 13 14
16 16 16 16 15 15 16 18 19 17 17 16 17 17 16 15 14 14 13 13 13 12 13 14 15 18 19 7 8 6 15 5 2 1 5 9 8 7 11 7 9 11 7 2 2 1 3 6 5 8 5 7 4 8 4 8 6 6 10 3 2 3 4 5 4 4 5 2 2 3 5 3 5 1 4 9 6 6 2 2 4 9 10 13 14 15 14 13
17 17 17 16 16 16 17 17 18 17 17 18 17 17 16 15 15 13 13 13 13 13 14 14 16 22 11 7 6 15 4 10 4 5 9 12 11 9 9 5 13 11 11 10 3 1 3 2 8 4 4 3 6 5 5 9 5 7 7 6 6 7 6 2 5 4 5 4 4 6 6 3 1 3 9 5 8 2 3 3 4 10 12 13 12 13 13 15
17 18 18 17 17 17 19 19 18 18 17 17 17 17 16 16 15 14 13 13 13 13 12 15 18 17 12 9 11 16 5 16 2 5 11 13 14 14 12 5 6 11 14 12 12 6 1 1 2 3 1 6 6 5 6 4 2 3 8 4 6 6 5 2 2 5 1 3 4 4 5 1 1 1 15 3 3 5 5 4 5 7 10 11 11 12 13 13
18 18 18 18 17 18 19 20 19 18 18 18 17 17 16 16 14 13 14 12 12 13 12 10 17 11 8 8 12 7 6 5 8 9 11 14 13 18 18 10 6 8 13 12 6 4 5 1 3 4 7 4 5 1 5 3 2 2 6 5 6 3 7 4 6 4 4 4 4 3 2 4 0 9 18 4 3 4 6 7 9 10 8 9 10 11 10 14
18 18 19 19 19 18 20 20 20 19 18 18 17 16 15 16 15 13 13 12 12 12 12 11 14 7 8 11 12 4 6 4 8 11 11 7 6 4 6 9 7 4 5 10 7 4 5 4 2 6 2 2 4 6 1 3 3 4 1 3 2 2 5 7 3 2 6 2 7 4 7 7 11 16 12 4 4 3 4 7 8 8 8 8 9 10 11 11
18 18 18 19 18 18 19 20 20 19 19 19 18 16 15 16 16 14 12 12 11 11 10 14 8 5 4 5 3 7 7 5 9 9 11 8 15 6 7 6 7 5 6 8 5 3 3 5 6 1 2 2 4 2 3 2 2 7 2 2 6 3 5 3 6 5 6 2 7 5 10 10 10 13 6 4 5 6 9 10 10 9 9 9 10 10 12 13
18 17 18 19 18 17 18 21 21 20 19 19 18 16 16 17 17 17 13 9 11 11 12 12 8 1 4 3 2 7 10 8 12 11 11 14 13 9 8 8 8 8 7 8 4 3 5 6 2 1 1 2 2 2 2 1 0 3 4 8 0 9 2 3 2 10 10 1 5 6 9 13 16 13 4 7 9 9 12 13 11 9 9 10 10 11 12 13
18 18 19 19 18 17 19 20 20 20 19 19 19 17 15 17 15 15 14 9 11 13 8 11 9 7 4 5 2 11 6 12 14 11 7 16 16 14 13 12 11 11 12 3 4 3 4 4 1 1 1 2 1 5 3 1 3 4 12 1 7 4 4 2 3 6 11 4 3 10 8 1 11 8 7 6 8 10 12 15 12 12 11 9 9 11 11 10
18 19 20 19 19 20 20 20 20 19 18 18 17 17 16 16 16 16 14 13 8 6 8 3 8 10 7 1 3 14 7 6 8 8 9 7 12 16 15 13 6 9 8 6 2 6 1 5 0 1 1 2 1 5 6 9 9 9 5 6 2 9 3 7 2 6 8 7 6 6 11 13 10 3 3 0 6 6 10 14 12 10 9 10 9 9 10 11
19 20 19 19 19 20 19 17 18 18 18 17 15 12 11 12 15 14 8 8 6 3 2 2 3 10 9 1 7 7 11 9 11 14 14 5 10 17 16 7 7 13 11 6 1 8 1 6 2 6 1 4 4 10 15 20 15 8 6 6 2 3 12 10 9 5 9 7 10 6 13 14 14 11 9 7 4 7 11 13 11 10 10 11 10 9 11 11
19 19 19 19 19 19 16 17 15 18 18 16 15 13 14 18 8 4 7 6 9 6 9 10 12 13 3 7 1 6 3 2 11 18 12 12 8 13 8 11 18 18 9 10 3 8 1 4 1 4 14 12 16 18 19 3 7 11 9 10 8 10 10 14 10 3 13 8 9 11 14 13 16 15 14 11 7 8 10 9 8 9 10 10 10 10 10 12
19 19 19 19 19 19 18 18 19 20 19 14 11 9 4 5 4 3 4 10 9 3 3 12 14 5 4 3 4 6 6 4 11 13 19 15 15 11 10 11 8 9 15 13 8 12 7 13 15 19 22 19 13 12 12 2 1 8 10 9 13 12 7 5 4 4 5 6 12 13 15 18 16 15 15 15 10 8 10 11 11 9 9 10 10 11 13 14
19 19 19 19 20 20 19 20 20 20 20 11 9 8 7 11 11 9 8 3 3 3 4 2 7 7 5 2 3 6 3 5 7 14 17 13 14 18 7 11 11 11 13 15 13 4 9 12 17 22 18 14 14 12 7 8 4 5 9 10 11 9 12 7 8 4 4 7 3 8 10 18 14 16 17 14 8 12 15 17 16 15 13 11 12 14 14 15
20 20 18 19 20 20 20 21 22 19 20 9 10 11 1 11 2 3 10 3 3 2 4 3 2 6 4 5 1 1 4 2 12 13 10 21 12 19 8 12 17 17 13 9 9 9 10 19 24 21 10 9 8 10 10 10 8 5 5 7 8 10 3 4 7 3 4 4 9 5 10 17 16 16 17 14 11 13 15 17 17 16 15 14 14 15 14 10
20 19 20 19 20 20 21 21 21 21 10 9 8 11 4 2 1 3 4 7 5 2 2 2 3 3 5 3 2 1 6 4 9 15 13 12 18 17 16 14 17 14 14 14 16 13 13 20 26 11 11 13 8 7 9 9 9 9 7 6 11 3 7 9 8 5 5 7 2 7 13 14 16 12 14 12 11 13 15 14 14 12 15 16 17 14 13 15
19 19 20 20 20 21 21 18 17 15 11 15 14 9 2 0 2 6 9 4 4 1 2 2 3 3 5 5 4 4 4 3 3 16 13 14 20 12 15 19 19 13 16 18 21 20 23 10 9 10 14 15 11 9 12 11 12 11 11 10 8 7 9 6 4 4 3 6 1 3 9 12 14 13 11 10 10 12 13 7 10 11 13 15 12 10 14 17
19 19 19 20 21 22 21 19 10 9 7 12 9 3 2 4 3 5 10 2 3 2 2 1 1 1 4 3 1 4 3 4 7 3 4 12 17 13 14 10 11 16 16 20 16 16 17 5 18 19 15 12 12 12 14 12 12 11 15 15 9 3 4 4 3 0 2 6 5 7 5 15 10 17 17 13 7 11 12 11 13 15 14 14 13 15 15 14
19 19 19 20 21 21 21 13 9 9 11 8 6 6 6 2 2 4 8 4 4 2 3 8 4 8 5 3 1 5 3 5 2 5 3 4 5 15 10 12 8 18 20 20 16 9 13 8 16 18 15 16 17 15 15 13 12 11 12 14 9 6 5 4 3 2 8 11 3 9 11 12 3 10 10 10 13 15 14 14 16 15 15 14 15 15 15 16
20 19 20 21 23 23 14 5 7 13 11 6 5 7 5 5 1 3 4 3 3 6 8 2 8 3 7 6 9 5 8 4 2 4 2 6 7 2 16 11 10 4 10 7 1 12 8 12 12 18 18 18 15 16 16 18 12 11 5 12 11 11 7 5 4 8 7 1 4 3 8 12 13 15 4 6 10 12 14 15 12 12 14 15 15 15 15 17
21 20 21 22 24 22 6 6 14 13 12 8 11 7 4 2 1 3 2 5 5 8 5 4 3 2 5 6 13 10 3 3 0 2 5 1 1 5 11 20 19 19 18 13 26 12 24 18 19 20 19 17 20 17 12 15 11 1 7 14 14 12 7 5 6 6 3 2 10 8 1 5 13 4 9 6 9 9 13 13 13 14 14 15 16 17 17 19
21 21 21 22 19 22 3 9 13 11 4 13 11 9 7 5 4 3 4 4 3 4 4 9 4 5 9 9 7 4 1 3 2 1 4 2 8 2 11 17 17 18 17 21 17 10 5 17 19 20 17 16 9 9 11 17 13 5 3 10 9 8 3 3 1 1 1 1 13 14 8 9 20 5 8 9 16 18 12 12 14 12 13 16 17 17 18 17
21 21 22 22 19 11 2 2 6 5 11 11 10 9 10 8 4 4 3 5 3 1 3 3 8 11 13 13 7 7 10 1 4 3 3 2 2 3 7 2 13 14 14 14 14 5 4 12 14 12 13 8 11 9 16 20 11 5 3 3 4 6 7 0 2 1 2 8 19 15 13 14 17 8 11 12 14 9 8 8 6 6 10 14 15 14 15 15
20 21 21 22 12 8 8 8 5 9 12 11 12 12 12 4 4 5 6 5 6 1 5 6 5 14 16 18 10 4 4 2 3 2 6 3 4 3 2 6 1 7 10 14 16 4 4 6 9 5 11 8 12 7 8 14 11 11 4 5 7 1 3 0 1 2 6 11 23 13 15 17 14 8 10 11 1 10 11 11 13 14 13 14 12 14 16 14
19 22 23 17 8 10 14 12 11 11 12 14 16 13 10 5 4 6 5 1 1 4 10 8 10 11 16 12 14 13 11 5 4 6 6 0 4 4 7 12 11 9 13 17 15 7 9 13 6 9 11 16 12 11 4 11 11 11 8 9 12 5 6 9 5 10 12 18 4 5 12 3 19 20 2 3 6 4 9 11 14 14 15 15 16 16 13 9
19 19 25 15 10 5 3 10 11 13 13 12 13 9 6 6 9 5 3 2 2 3 6 5 11 14 10 12 8 11 6 12 6 4 7 0 1 7 10 8 6 4 9 15 13 15 8 5 12 9 8 12 16 16 10 10 12 15 14 14 14 11 10 13 14 7 8 9 1 2 8 11 14 16 15 12 4 8 7 8 7 9 12 12 12 11 10 8
19 20 16 10 6 3 9 15 11 17 19 11 12 6 1 6 4 6 2 1 4 3 6 4 10 9 15 12 7 13 4 1 10 7 9 4 5 5 3 5 5 3 1 11 14 15 11 14 13 17 11 13 18 17 19 15 18 18 12 15 13 11 6 14 9 16 15 9 2 1 5 6 6 6 4 5 10 8 8 10 10 9 7 8 9 8 8 8
21 15 10 6 2 7 13 12 16 17 16 14 8 7 10 6 2 9 4 2 1 2 5 6 11 11 7 4 0 9 4 7 8 10 7 7 5 3 3 1 5 4 2 12 6 5 22 10 10 26 12 23 19 14 13 9 7 10 11 7 11 15 2 10 4 6 9 7 3 6 8 5 13 2 3 3 3 4 3 5 4 6 6 9 10 11 12 11
16 9 9 5 6 9 15 11 15 13 16 12 9 6 8 5 4 3 4 4 2 5 9 10 8 6 6 3 2 10 3 4 7 7 2 7 3 4 4 4 3 2 4 5 4 12 5 13 12 13 8 23 21 16 13 16 14 9 8 16 15 6 9 2 4 1 2 1 13 1 9 13 11 19 14 8 4 7 6 5 6 9 10 12 12 12 16 13
8 9 8 6 6 9 13 14 14 11 11 11 10 9 6 1 3 3 3 8 6 13 11 11 7 7 9 6 5 9 4 8 7 8 6 4 4 8 4 5 6 4 8 2 6 4 8 8 16 20 18 14 19 18 13 19 5 11 17 11 3 4 3 2 7 1 4 7 6 7 17 15 5 16 5 18 17 12 8 9 9 11 12 13 17 17 20 7
8 4 6 8 7 8 10 14 15 9 9 10 11 7 2 4 1 2 2 5 6 4 7 5 2 7 8 8 7 11 7 11 7 5 6 9 4 10 8 3 6 12 8 3 2 4 7 5 6 15 18 13 14 15 10 11 5 12 11 11 15 9 12 3 2 12 7 10 5 12 16 19 15 19 0 3 18 19 17 12 10 10 10 16 20 22 17 5
6 7 4 1 6 10 10 12 14 12 9 8 10 9 2 1 0 1 3 6 3 6 9 3 3 4 7 9 5 9 12 10 8 8 8 4 6 5 7 7 4 9 10 8 5 3 4 3 3 10 19 12 12 14 17 13 5 3 2 14 8 1 12 12 13 4 7 12 6 18 10 17 11 18 17 10 7 13 15 13 11 12 12 14 15 17 15 12
9 5 1 1 5 9 10 11 10 9 8 13 12 2 4 3 2 1 3 9 2 3 3 4 1 6 5 4 12 8 8 6 12 7 7 4 6 2 9 7 6 7 7 10 6 1 1 3 5 4 7 15 12 10 16 18 18 9 6 12 11 7 1 7 5 13 9 9 14 10 14 10 15 7 10 12 11 9 12 14 13 13 13 14 16 16 14 10
2 5 1 2 4 9 11 9 8 10 8 2 4 2 4 4 3 0 3 5 3 1 2 4 5 5 4 5 3 5 6 7 7 7 5 4 8 3 6 9 8 9 8 11 8 3 1 1 2 1 10 14 10 11 22 27 24 19 18 19 19 16 11 16 16 5 10 8 5 7 21 10 7 4 12 15 15 13 14 17 17 20 21 19 18 16 10 7
9 5 2 2 1 10 12 7 2 2 3 7 8 4 4 3 4 1 1 0 5 2 2 5 1 3 2 2 3 9 7 7 7 6 3 7 8 3 6 14 10 12 10 8 6 8 5 0 2 7 2 4 3 7 12 14 16 16 16 16 16 15 11 12 16 14 6 8 1 5 6 17 3 2 7 10 11 15 16 15 16 14 16 15 13 10 7 8
4 5 3 5 2 7 9 2 3 6 3 1 2 3 2 4 3 2 3 0 2 1 2 2 2 3 1 2 1 3 7 4 8 7 6 6 5 12 5 16 11 10 10 3 5 3 9 3 3 11 7 11 12 7 4 9 8 10 12 8 12 17 16 13 11 8 14 11 12 11 14 14 3 2 7 5 6 10 10 10 11 9 9 12 15 9 7 7
4 5 4 5 4 5 6 5 6 5 5 4 3 2 3 3 3 1 1 0 2 1 2 2 1 0 2 2 2 7 5 4 2 5 1 2 2 6 5 14 15 8 10 7 8 11 5 4 5 6 5 4 2 2 5 4 1 9 12 14 13 12 16 15 8 1 10 16 17 11 21 12 10 3 0 2 3 5 8 8 9 11 8 10 10 9 7 6
7 4 5 4 4 4 4 1 6 7 8 9 7 6 2 4 0 1 2 0 1 2 2 0 2 3 2 2 2 1 0 1 2 2 2 2 4 1 4 9 12 9 3 3 8 12 9 7 9 9 10 11 8 6 7 9 14 5 5 15 16 16 17 10 16 10 13 10 13 14 15 12 9 1 2 0 1 5 6 6 5 8 10 10 9 9 9 5
1 6 3 3 3 1 3 1 1 5 9 9 8 2 3 4 2 3 4 1 0 1 2 3 1 6 3 4 2 1 3 0 4 4 5 3 3 1 3 6 4 3 3 10 5 2 3 1 9 13 13 13 7 1 2 3 5 6 7 15 18 19 18 18 11 14 20 11 15 17 14 14 21 7 5 6 3 7 6 5 8 8 9 8 7 8 7 7
2 4 4 5 2 3 2 2 4 2 5 3 6 3 4 3 2 2 2 2 2 1 1 1 3 4 1 5 3 2 1 3 2 3 4 4 2 1 1 5 5 3 10 4 3 5 1 1 5 5 7 5 3 3 6 4 2 4 5 11 19 21 21 20 17 19 11 11 23 11 13 16 25 20 13 4 5 5 3 4 5 5 7 10 10 7 6 4
4 1 2 1 4 6 5 2 5 5 5 5 2 3 5 5 2 5 2 1 1 2 3 3 1 1 8 7 5 4 2 1 1 3 1 1 2 0 1 2 3 5 10 2 2 3 3 2 1 5 6 4 1 4 5 3 4 4 6 5 8 15 21 23 22 20 18 18 19 14 18 18 24 24 16 10 8 9 9 9 10 8 4 2 0 3 5 6
2 2 1 3 4 2 3 6 8 7 8 6 3 4 5 8 7 3 3 1 2 1 1 2 3 1 4 3 3 3 4 3 2 1 2 3 4 3 1 1 2 2 2 2 1 0 2 3 2 3 5 4 5 6 5 5 3 4 7 7 9 7 11 16 22 23 24 21 17 18 17 23 19 19 12 12 9 7 7 4 0 1 4 5 5 5 6 6
1 4 2 3 4 7 8 8 7 8 5 5 4 3 5 8 8 1 1 3 3 1 1 3 2 4 4 4 2 3 5 6 4 3 3 3 2 1 3 3 2 3 1 2 1 3 3 3 7 6 6 9 7 7 6 7 6 10 7 9 8 8 10 9 9 15 19 23 20 18 19 20 13 14 16 9 7 5 4 5 9 7 4 4 5 6 7 7
2 1 3 8 6 2 6 5 6 7 6 4 3 3 4 7 6 3 1 1 4 4 3 6 5 3 2 4 3 3 3 4 4 2 6 7 6 6 5 3 5 4 3 3 2 1 2 2 2 1 4 2 3 7 8 8 9 11 12 9 9 10 9 6 7 5 6 14 19 22 21 19 15 21 21 3 5 8 13 14 10 6 6 6 8 9 9 9
2 1 3 6 5 3 5 3 4 6 5 5 3 1 2 5 3 5 1 2 2 5 7 6 5 5 1 2 4 4 3 5 6 6 8 8 4 2 1 2 6 6 5 5 3 4 5 3 2 1 0 2 1 5 3 4 5 10 14 13 13 12 10 6 6 5 10 8 12 16 21 18 22 19 16 4 9 12 13 8 6 8 11 12 13 13 10 8
Wind_Direction
243 244 247 248 249 247 247 247 248 247 245 247 245 243 235 226 225 224 224 221 217 206 197 203 208 210 207 203 197 187 155 176 182 200 209 218 194 208 4 259 255 319 150 115 351 134 204 201 214 287 29 68 257 132 247 36 133 65 158 124 246 198 187 206 176 189 190 134 248 272 219 123 138 313 358 66 37 66 41 61 328 21 24 316 305 126 130 140
244 244 246 247 247 248 244 244 245 245 243 243 243 242 236 223 220 220 221 222 220 212 205 200 205 207 204 190 156 149 163 192 201 204 216 202 198 183 224 255 270 148 106 177 180 188 168 214 216 102 117 168 285 168 113 241 100 134 119 130 234 185 233 161 195 219 107 258 192 238 276 168 208 142 231 113 256 115 80 2 17 39 14 42 74 121 132 145
241 243 244 245 245 247 244 241 242 242 241 242 241 240 235 224 219 215 216 217 216 212 204 204 202 214 208 178 152 146 145 264 280 229 220 208 188 195 206 211 263 162 162 179 221 183 176 188 184 107 152 142 268 181 111 242 142 233 130 217 229 197 230 256 207 266 199 176 157 164 193 181 204 144 171 155 168 120 172 164 341 149 176 139 127 136 142 152
238 240 241 245 245 245 246 238 238 238 240 241 240 238 235 226 219 212 207 208 211 211 202 201 195 190 192 170 143 141 140 324 250 195 210 187 199 192 197 190 207 175 145 243 140 215 194 157 140 147 125 160 247 91 150 241 132 255 133 215 226 189 238 252 193 236 252 141 162 170 55 140 252 223 154 163 121 253 253 221 168 199 180 172 166 157 156 160
237 237 240 242 243 240 245 244 238 236 236 238 237 235 234 224 217 211 204 202 203 206 206 198 191 178 168 155 149 140 127 284 258 179 191 176 195 194 190 169 125 132 170 105 102 75 128 164 142 130 111 203 121 76 235 221 192 117 217 173 186 134 204 254 223 214 175 208 134 131 123 214 84 57 155 151 162 212 210 216 218 186 168 160 170 174 165 168
236 236 238 241 241 238 239 245 240 236 232 236 237 233 231 227 216 210 205 201 203 203 205 195 189 175 162 154 151 173 147 211 177 216 175 177 188 190 188 166 132 135 130 173 172 167 139 170 140 153 199 150 187 176 250 186 144 231 270 243 240 188 171 258 271 215 165 143 161 150 215 95 156 230 195 185 191 234 215 194 198 171 172 175 163 160 174 177
234 236 237 239 241 240 236 239 241 236 233 232 235 234 232 226 218 209 205 202 200 204 210 201 183 167 163 152 165 180 197 237 13 251 184 183 183 184 184 163 127 101 130 148 202 181 176 170 168 195 155 197 237 194 222 175 201 211 239 180 221 216 233 239 255 141 174 144 207 203 83 165 171 218 163 203 248 235 253 210 186 169 159 142 156 178 178 185
232 234 235 236 238 239 240 238 240 236 233 231 232 233 231 226 217 209 204 203 199 200 203 201 179 165 149 142 134 220 207 212 221 290 188 191 184 181 173 149 150 133 119 179 178 204 159 183 183 144 198 181 210 189 191 161 181 203 247 206 257 199 238 240 244 227 182 203 180 113 139 232 181 190 44 247 246 250 257 26 104 133 146 165 171 183 189 190
231 232 233 233 233 234 237 236 237 234 232 230 230 231 230 225 216 211 205 202 200 201 203 202 182 167 153 150 188 186 227 176 206 165 162 158 158 150 138 148 161 165 183 127 88 111 167 207 185 181 210 194 224 185 186 154 254 217 217 167 213 224 246 240 242 215 211 182 170 142 225 254 239 265 257 236 245 236 215 78 122 144 155 174 185 187 186 194
230 231 231 232 232 230 233 233 234 236 232 228 229 230 228 225 218 210 207 202 201 201 203 195 175 165 162 152 165 220 206 166 288 109 132 137 128 118 164 164 168 170 168 207 141 140 166 217 191 195 128 224 139 205 164 188 229 199 211 202 202 227 234 235 201 222 214 222 189 200 230 230 306 136 267 222 221 135 135 156 164 159 180 189 189 191 194 192
228 230 231 229 230 229 231 233 231 232 233 228 227 230 225 223 218 207 202 201 197 199 205 191 189 159 171 185 186 217 125 177 183 130 132 134 139 145 179 172 193 164 174 194 206 153 93 355 338 126 327 226 150 235 157 226 139 159 203 204 239 249 245 241 192 221 129 261 184 186 248 258 282 126 247 157 228 165 156 176 184 195 191 193 196 194 201 203
227 229 231 230 229 229 229 230 230 227 229 227 226 227 222 220 216 205 200 201 199 196 203 192 182 169 168 195 217 206 192 164 147 161 146 145 159 174 171 163 181 173 168 182 193 145 115 301 356 212 191 128 196 56 240 187 155 175 144 189 238 260 240 210 198 214 160 247 148 133 343 280 169 226 244 146 159 162 185 194 201 203 207 204 202 202 202 210
226 228 230 231 229 226 228 228 227 224 224 224 223 224 217 214 215 204 197 197 204 199 196 176 179 197 143 208 219 164 182 136 149 157 156 154 101 73 127 143 152 144 178 166 154 161 125 78 3 240 339 179 172 159 232 128 153 105 58 153 235 211 257 236 184 141 158 243 152 119 261 222 234 240 250 136 186 199 214 230 221 212 207 210 207 207 212 218
223 226 228 229 228 225 222 225 225 223 222 223 221 219 216 209 206 200 191 193 195 195 172 161 177 198 210 238 133 188 184 121 136 155 152 142 126 123 103 111 97 90 98 98 110 129 80 80 70 91 18 70 183 329 100 14 86 188 209 101 208 167 249 233 173 168 175 190 170 131 247 260 246 248 255 225 201 186 224 234 226 216 212 212 212 212 214 217
221 222 225 226 225 220 221 223 222 220 220 221 220 217 212 205 201 203 185 182 185 182 167 152 178 130 221 257 20 207 118 115 160 175 162 146 127 111 112 110 102 105 106 118 115 110 120 91 74 17 261 240 345 127 31 141 346 170 137 224 230 199 279 264 203 155 191 228 187 119 247 251 257 257 216 211 204 199 224 233 229 219 219 214 214 219 220 221
220 221 224 225 222 216 218 221 221 220 219 219 218 216 210 201 196 202 191 192 183 172 169 171 177 203 312 246 211 101 134 171 187 165 190 146 151 145 142 121 117 114 114 65 121 105 86 81 108 187 336 343 149 158 120 79 249 232 204 137 201 153 223 343 245 191 194 154 250 182 236 279 277 263 242 224 199 206 223 239 235 229 228 220 218 221 224 227
218 220 222 223 223 221 219 218 219 219 219 218 218 216 202 190 193 197 192 177 171 156 158 172 172 174 232 309 5 178 162 202 141 157 172 186 144 131 120 118 113 103 89 85 92 126 9 179 124 325 355 179 204 138 159 217 211 208 204 202 185 176 157 224 298 216 205 170 206 231 236 237 252 281 291 273 192 197 227 241 243 240 241 239 233 228 230 227
214 218 220 220 222 222 219 216 217 217 216 217 212 202 194 199 194 181 162 138 105 110 86 74 147 164 233 239 186 188 165 165 169 166 170 182 147 140 138 123 117 115 110 98 342 168 282 191 143 212 135 198 172 189 194 214 198 175 157 180 219 163 187 200 180 233 191 208 209 216 239 245 255 260 264 268 174 192 224 236 242 241 239 240 236 233 231 231
213 215 216 219 219 218 210 212 211 216 222 213 201 179 195 187 191 117 132 159 132 143 189 189 170 217 184 152 116 327 191 207 162 158 165 152 177 142 121 131 135 133 144 152 226 147 166 72 101 182 216 202 205 201 209 99 161 192 168 198 196 195 201 210 206 251 189 212 220 222 238 241 246 253 256 250 218 200 227 242 249 246 246 247 241 236 233 233
211 213 213 216 216 212 205 203 204 205 207 214 182 179 130 121 133 181 166 175 194 201 8 158 180 74 59 347 349 287 227 297 172 181 159 161 150 142 130 141 149 149 148 180 160 194 143 185 193 202 212 209 206 213 223 248 307 161 188 200 213 217 228 233 226 206 190 210 225 229 241 250 250 249 249 244 235 229 240 245 243 242 242 245 243 240 236 233
210 210 210 212 212 210 206 204 203 202 193 190 179 153 192 163 160 184 154 121 83 87 56 30 152 138 145 107 337 21 26 204 202 174 170 152 150 140 172 141 162 170 188 171 158 112 169 200 215 215 210 198 205 206 220 236 300 207 196 205 222 211 228 206 227 200 201 190 244 219 243 254 244 249 247 244 219 223 231 240 244 245 241 241 242 245 241 241
210 209 208 207 208 207 202 202 203 201 188 172 171 185 204 192 154 172 133 127 49 68 75 87 21 83 85 106 106 180 123 250 185 180 172 158 165 161 193 175 172 187 180 151 109 153 190 212 218 209 183 200 206 196 203 220 227 267 221 212 228 226 237 275 249 180 212 188 241 221 236 256 246 240 248 241 223 226 225 225 232 235 240 241 241 244 248 251
210 209 206 206 206 205 203 200 202 195 176 164 183 201 214 218 7 103 82 100 147 212 125 170 110 131 114 125 164 163 48 344 184 168 181 175 164 184 160 181 185 180 176 164 170 161 204 224 223 178 186 203 199 178 192 215 229 229 222 195 220 143 153 232 237 215 222 199 206 218 247 258 267 251 253 246 226 235 232 225 230 227 234 235 235 234 239 242
210 207 205 204 203 203 199 194 190 198 199 178 181 194 259 121 288 126 111 184 161 172 173 197 166 161 159 136 214 140 88 199 348 187 170 176 173 150 171 178 180 182 189 184 186 186 203 226 185 169 198 195 191 178 191 199 220 223 228 229 222 171 205 222 255 233 236 254 118 307 287 267 250 253 252 244 226 238 244 225 233 238 236 240 242 241 233 237
206 205 203 203 203 199 199 183 186 189 144 172 187 227 216 188 211 140 112 83 24 312 211 23 160 214 150 60 208 75 160 285 198 286 197 181 163 153 191 170 176 196 183 191 193 204 219 175 148 192 189 177 188 197 200 192 216 221 226 224 223 214 249 215 254 245 285 272 201 168 276 259 234 241 235 239 224 231 243 227 224 229 233 239 240 238 239 243
203 201 202 201 199 197 182 177 201 165 142 173 175 181 166 208 80 109 94 86 208 225 133 226 152 237 120 162 79 153 59 290 202 211 196 262 243 176 149 195 182 187 185 181 195 216 208 181 170 182 171 183 196 206 200 188 214 213 223 209 214 234 235 216 213 163 252 251 274 186 217 271 95 243 226 222 234 231 238 228 226 226 232 233 234 235 237 237
203 201 199 199 195 183 172 209 145 140 163 187 172 165 171 121 211 96 118 23 239 176 159 211 177 251 166 167 131 135 219 252 73 98 252 265 217 201 178 169 172 205 174 156 199 213 162 180 171 173 176 184 196 210 198 189 199 228 104 159 202 222 220 230 185 191 245 354 286 271 227 262 274 245 207 215 229 235 237 241 230 227 233 235 235 237 237 237
204 201 200 199 197 183 195 137 151 167 180 138 143 158 130 94 65 177 219 155 240 121 173 176 212 233 141 158 146 169 158 44 180 249 214 255 263 244 205 178 184 179 173 164 208 155 187 177 177 174 179 187 202 203 175 179 196 233 146 152 198 199 213 228 199 208 243 20 268 226 82 293 247 251 170 163 244 228 242 238 236 228 227 234 237 238 239 239
204 202 200 200 193 186 201 166 167 172 132 139 139 134 107 96 71 122 187 178 240 101 239 127 242 96 113 130 159 158 102 86 145 23 286 222 240 313 192 191 189 181 178 187 202 190 193 181 183 178 179 197 182 169 157 172 209 216 172 166 169 174 182 94 89 93 335 188 248 233 173 237 270 163 188 195 227 233 221 230 237 228 224 229 234 237 239 244
203 202 198 190 174 168 211 181 152 134 141 129 129 110 100 92 86 163 199 252 121 332 173 190 169 169 148 138 146 182 176 181 139 311 355 352 283 189 291 201 186 176 180 199 220 209 183 186 172 177 193 177 163 164 170 183 193 112 118 92 126 156 207 351 47 117 42 240 249 227 185 201 270 206 192 172 223 211 207 229 238 232 230 240 238 236 239 238
200 198 195 180 174 167 132 156 170 149 134 129 123 114 102 47 141 146 188 214 63 223 98 155 136 156 148 148 144 174 150 131 194 163 278 360 302 214 183 138 142 179 179 186 203 206 200 152 170 197 169 172 155 170 182 174 162 153 163 126 99 257 57 205 286 98 214 249 247 216 200 190 234 269 168 198 153 178 179 202 216 226 226 233 235 237 237 235
198 194 184 173 166 152 168 172 157 148 139 135 126 128 129 145 276 182 202 50 85 206 162 131 183 151 167 153 149 158 165 163 231 177 181 229 268 284 214 183 151 179 192 180 192 153 194 190 154 162 182 154 169 162 190 162 163 177 140 142 169 201 154 222 147 215 198 225 315 187 161 185 227 235 98 183 231 224 196 196 205 214 226 229 233 237 238 236
187 188 174 169 158 177 116 125 144 138 129 128 121 132 136 168 197 208 271 150 246 167 196 168 154 161 164 155 177 148 156 178 149 190 149 20 130 265 273 303 293 209 183 179 179 181 204 180 178 169 154 183 161 178 157 177 192 177 182 175 182 192 187 211 206 229 246 263 234 6 155 218 256 271 236 218 225 213 206 228 227 221 227 233 241 251 250 243
188 180 171 169 160 155 142 146 145 138 132 139 126 125 219 192 217 178 122 161 163 70 127 132 151 146 163 180 162 159 98 287 148 177 163 176 151 250 310 267 249 288 91 175 191 176 172 201 202 158 205 159 189 188 178 179 177 195 181 187 197 191 189 204 196 208 218 225 343 293 123 230 198 251 327 226 211 202 212 210 217 227 240 252 255 260 260 256
175 168 149 132 135 150 145 146 147 149 134 137 141 162 174 195 205 171 170 197 277 111 105 155 140 147 175 198 242 188 170 187 154 141 167 171 209 167 198 224 261 302 267 167 206 176 202 215 161 183 166 170 190 184 177 155 179 193 190 178 204 212 105 234 195 218 224 234 222 205 213 189 227 105 223 288 340 303 297 256 263 260 256 259 264 262 254 241
160 163 143 149 144 170 144 152 148 149 138 143 150 179 192 180 193 175 195 148 149 108 123 112 136 139 171 147 162 185 270 104 153 142 178 193 189 211 132 203 166 176 287 222 147 200 167 228 146 179 182 180 182 174 186 151 192 175 176 212 207 178 215 112 14 278 81 212 242 217 287 266 308 286 258 249 265 272 271 262 239 243 247 253 260 260 257 244
139 141 140 146 146 166 152 145 151 155 149 156 163 195 186 35 192 132 121 146 178 141 133 145 185 154 175 173 175 173 208 82 174 160 209 125 270 178 188 227 203 237 242 93 310 326 215 204 170 173 188 196 184 184 174 183 144 146 206 192 73 40 80 184 211 110 179 231 251 195 238 257 214 269 221 211 228 234 244 240 233 230 237 246 250 245 248 235
123 102 101 128 157 155 147 147 145 154 157 165 188 169 56 120 268 104 147 101 91 125 140 146 143 156 169 166 182 164 198 183 174 165 184 165 258 162 159 155 190 209 224 144 302 324 18 192 204 182 182 186 179 167 196 206 181 200 198 145 182 184 218 211 150 223 170 218 238 227 225 244 212 241 83 231 213 211 220 226 226 230 230 236 244 250 254 234
110 128 105 104 151 156 150 144 147 153 156 178 196 171 263 157 330 114 186 124 104 139 158 211 119 196 159 187 164 164 175 190 159 185 165 223 210 159 162 152 196 206 211 151 197 273 2 274 152 198 185 162 170 170 195 191 265 322 105 182 195 191 209 175 204 242 198 233 210 249 213 247 212 234 228 217 203 214 214 217 225 225 223 231 240 247 248 242
128 80 163 333 140 149 147 143 149 159 164 185 189 188 202 127 190 256 106 122 139 106 214 153 218 136 179 196 157 152 195 181 172 190 188 183 184 170 158 188 145 176 185 169 184 267 321 289 266 192 192 150 203 184 191 182 189 199 187 189 186 213 240 202 220 210 204 211 221 243 247 229 241 203 220 212 212 199 204 213 222 230 232 233 238 240 239 237
36 93 65 5 135 144 141 145 157 171 176 14 43 144 173 165 137 348 53 96 108 327 150 144 162 147 174 133 142 163 156 172 173 172 167 181 171 192 209 173 164 147 152 153 175 161 57 280 215 192 189 197 189 185 197 191 188 186 180 192 191 181 182 187 221 213 227 211 221 195 244 253 265 206 184 196 204 194 199 197 208 218 225 228 230 238 238 241
134 117 178 6 335 152 139 131 141 87 125 163 166 166 158 101 68 180 104 342 105 133 37 103 36 120 81 79 138 166 156 173 183 169 221 169 213 215 196 175 173 148 147 179 174 187 146 106 358 289 282 241 218 235 231 214 198 196 183 197 191 198 192 197 210 207 221 228 131 253 294 258 209 167 196 193 204 202 204 198 207 215 226 235 243 241 240 232
105 103 50 19 334 143 127 100 125 140 130 172 31 33 33 62 106 248 117 317 81 106 77 75 188 97 283 135 153 113 165 178 175 191 184 196 206 197 172 178 171 172 152 182 106 172 103 227 173 272 275 264 274 284 276 224 199 214 224 226 194 203 197 209 215 193 211 210 225 226 237 262 274 228 216 219 225 209 205 196 206 218 224 235 242 245 230 237
85 104 63 358 20 87 146 162 151 132 111 88 84 89 22 115 100 29 95 336 120 88 131 146 53 104 153 106 106 165 204 145 239 179 101 200 230 199 168 183 177 178 170 192 162 178 153 213 173 255 270 301 305 1 280 4 229 214 200 208 215 208 204 212 223 113 227 213 219 208 239 243 251 227 359 253 257 240 227 216 207 214 231 237 245 249 243 238
113 68 57 28 19 49 121 302 138 132 130 137 131 129 117 56 64 119 133 4 27 125 95 60 175 144 91 126 96 69 330 137 162 214 131 183 204 79 147 182 196 193 164 222 188 172 198 166 160 204 220 244 246 220 210 199 201 188 222 205 211 209 208 190 218 206 238 213 208 224 244 251 265 65 226 312 239 242 246 233 205 211 220 235 246 249 252 235
137 125 133 46 47 91 55 263 24 124 130 135 115 138 80 109 41 338 94 5 203 105 106 139 18 100 92 87 78 66 184 355 121 207 165 204 234 332 216 166 132 128 162 99 54 132 172 244 199 191 208 226 229 110 140 92 0 220 213 201 210 210 210 208 209 210 219 205 227 225 229 245 252 226 238 248 233 178 207 213 197 220 239 240 244 243 235 217
107 85 145 142 115 44 118 47 114 83 136 149 124 156 140 126 157 92 268 102 292 139 56 62 175 104 180 101 157 128 180 128 13 92 189 170 252 227 319 173 174 210 154 129 214 88 126 157 224 219 229 217 162 147 152 126 235 233 270 238 214 209 211 211 209 221 199 212 236 212 222 229 247 242 227 230 226 240 257 249 235 236 232 218 221 224 232 234
75 273 48 236 129 172 131 194 148 114 74 84 112 106 146 133 161 153 58 355 76 360 111 341 38 113 160 160 139 124 128 102 87 168 177 15 108 351 19 354 151 181 173 169 193 142 154 223 160 163 252 261 203 178 164 163 188 230 215 240 276 242 217 217 222 221 211 220 229 210 218 223 239 241 227 214 197 207 206 209 212 204 201 204 191 203 213 228
102 116 65 349 76 37 72 116 129 128 128 137 79 131 157 169 189 177 143 117 37 342 66 147 213 198 108 54 95 143 139 108 288 273 142 178 158 143 130 360 297 78 95 46 31 180 93 252 143 181 246 217 203 206 177 192 225 217 221 229 226 252 282 257 234 225 223 230 230 234 233 234 238 253 239 228 213 199 217 212 25 212 217 191 192 221 220 229
146 132 136 23 55 103 113 114 123 124 120 166 112 228 166 188 185 96 15 115 138 185 351 116 112 81 116 101 96 126 196 168 164 165 228 129 227 62 173 175 163 12 104 166 105 324 161 246 165 177 221 251 233 220 200 211 221 239 235 225 229 250 244 242 291 284 257 239 239 240 245 251 247 257 251 229 213 203 249 231 225 219 214 205 205 216 228 227
146 116 143 114 93 75 102 109 119 136 129 157 151 218 142 192 188 159 140 154 141 160 158 177 155 93 61 114 124 204 217 149 121 164 179 160 177 213 149 254 152 168 137 136 134 360 131 246 73 196 182 265 173 169 197 206 221 234 252 222 216 214 234 235 230 198 268 267 239 236 244 244 245 243 250 177 163 195 221 229 230 228 222 222 227 233 225 229
56 322 90 106 83 129 120 76 73 91 174 197 143 172 175 184 156 140 157 257 156 146 158 142 169 114 17 98 219 227 215 170 188 190 170 195 176 105 141 149 142 152 170 166 182 138 175 181 120 242 271 258 147 145 136 209 233 246 235 226 207 204 207 239 229 226 226 224 271 240 233 238 242 244 251 209 198 213 223 222 231 248 245 236 232 232 236 237